CW0451 Weather Reports


Display with metric or nautical units.
time (UTC)temp
F
wind
direction
speed
MPH
gust
MPH
rain 1hr
in
rain 24hr
in
rain mn
in
humidity
%
barometer
mb
20210619150102 78 232 4.0 9.0 0.00 0.00 0.00 74 1006.1
20210619145601 78 247 3.0 12.0 0.00 0.00 0.00 76 1006.1
20210619145103 77 244 2.0 12.0 0.00 0.00 0.00 77 1006.1
20210619144601 77 253 3.0 15.0 0.00 0.00 0.00 76 1006.0
20210619144102 77 247 8.0 16.0 0.00 0.00 0.00 76 1006.2
20210619143601 76 190 9.0 16.0 0.00 0.00 0.00 75 1006.2
20210619143102 76 187 4.0 13.0 0.00 0.00 0.00 78 1006.3
20210619142601 76 192 7.0 14.0 0.00 0.00 0.00 76 1006.3
20210619142102 75 202 8.0 14.0 0.00 0.00 0.00 79 1006.3
20210619141601 74 207 6.0 10.0 0.00 0.00 0.00 78 1006.4
20210619141102 74 182 6.0 11.0 0.00 0.00 0.00 79 1006.5
20210619140601 74 191 7.0 12.0 0.00 0.00 0.00 78 1006.5
20210619140102 74 204 7.0 14.0 0.00 0.00 0.00 77 1006.5
20210619135602 74 178 4.0 14.0 0.00 0.00 0.00 78 1006.6
20210619135102 74 189 9.0 14.0 0.00 0.00 0.00 78 1006.6
20210619134602 74 182 3.0 13.0 0.00 0.00 0.00 80 1006.6
20210619134101 74 225 3.0 13.0 0.00 0.00 0.00 77 1006.6
20210619133602 74 218 8.0 18.0 0.00 0.00 0.00 77 1006.7
20210619133101 73 207 7.0 18.0 0.00 0.00 0.00 79 1006.7
20210619132602 74 199 10.0 15.0 0.00 0.00 0.00 76 1006.8
20210619132101 74 196 4.0 14.0 0.00 0.00 0.00 79 1006.7
20210619131602 73 192 4.0 13.0 0.00 0.00 0.00 80 1006.8
20210619131101 73 221 5.0 15.0 0.00 0.00 0.00 79 1006.7
20210619130602 72 212 7.0 15.0 0.00 0.00 0.00 79 1006.7
20210619130101 72 225 5.0 12.0 0.00 0.00 0.00 80 1006.7
20210619125602 72 194 7.0 13.0 0.00 0.00 0.00 82 1006.6
20210619125101 71 139 9.0 16.0 0.00 0.00 0.00 80 1006.7
20210619124602 71 144 8.0 16.0 0.00 0.00 0.00 80 1006.8
20210619124101 71 170 4.0 12.0 0.00 0.00 0.00 81 1006.8
20210619123602 71 178 7.0 12.0 0.00 0.00 0.00 79 1007.0
20210619123101 71 216 5.0 13.0 0.00 0.00 0.00 81 1006.9
20210619122602 70 222 6.0 15.0 0.00 0.00 0.00 83 1006.9
20210619122102 69 205 10.0 15.0 0.00 0.00 0.00 81 1007.0
20210619121602 69 207 9.0 16.0 0.00 0.00 0.00 80 1007.2
20210619121102 69 206 9.0 16.0 0.00 0.00 0.00 81 1007.2
20210619120601 69 196 5.0 14.0 0.00 0.00 0.00 82 1007.1
20210619120102 68 195 8.0 13.0 0.00 0.00 0.00 82 1007.3
20210619115602 68 201 9.0 13.0 0.00 0.00 0.00 82 1007.2
20210619115101 68 198 6.0 16.0 0.00 0.00 0.00 81 1007.3
20210619114602 68 189 10.0 16.0 0.00 0.00 0.00 81 1007.4
20210619114101 68 191 11.0 16.0 0.00 0.00 0.00 81 1007.7
20210619113602 68 196 10.0 16.0 0.00 0.00 0.00 81 1007.6
20210619113101 68 195 6.0 17.0 0.00 0.00 0.00 81 1007.4
20210619112602 68 197 11.0 17.0 0.00 0.00 0.00 81 1007.3
20210619112102 67 182 8.0 18.0 0.00 0.00 0.00 81 1007.2
20210619111602 67 192 11.0 18.0 0.00 0.00 0.00 81 1007.2
20210619111102 67 192 8.0 14.0 0.00 0.00 0.00 82 1007.1
20210619110601 67 185 7.0 14.0 0.00 0.00 0.00 82 1007.1
20210619110102 66 189 6.0 12.0 0.00 0.00 0.00 82 1007.2
20210619105602 66 191 3.0 15.0 0.00 0.00 0.00 82 1007.2
20210619105102 66 199 10.0 16.0 0.00 0.00 0.00 82 1007.2
20210619104601 66 201 9.0 16.0 0.00 0.00 0.00 82 1007.0
20210619104102 66 185 7.0 17.0 0.00 0.00 0.00 82 1007.1
20210619103601 66 193 10.0 17.0 0.00 0.00 0.00 82 1007.1
20210619103102 66 190 6.0 13.0 0.00 0.00 0.00 83 1007.3
20210619102601 66 186 8.0 17.0 0.00 0.00 0.00 82 1007.2
20210619102102 66 191 9.0 17.0 0.00 0.00 0.00 82 1007.1
20210619101601 65 189 10.0 17.0 0.00 0.00 0.00 83 1007.2
20210619101102 65 204 6.0 14.0 0.00 0.00 0.00 83 1007.4
20210619100601 65 195 7.0 12.0 0.00 0.00 0.00 83 1007.4
20210619100102 65 173 9.0 12.0 0.00 0.00 0.00 83 1007.5
20210619095601 65 193 6.0 12.0 0.00 0.00 0.00 83 1007.7
20210619095102 65 188 8.0 15.0 0.00 0.00 0.00 83 1007.7
20210619094601 65 192 7.0 15.0 0.00 0.00 0.00 83 1007.8
20210619094102 65 195 7.0 13.0 0.00 0.00 0.00 82 1008.0
20210619093601 65 201 7.0 20.0 0.00 0.00 0.00 82 1008.0
20210619093102 65 200 9.0 20.0 0.00 0.00 0.00 82 1008.0
20210619092601 65 198 8.0 17.0 0.00 0.00 0.00 82 1008.1
20210619092102 65 195 6.0 14.0 0.00 0.00 0.00 82 1008.1
20210619091602 65 188 8.0 16.0 0.00 0.00 0.00 81 1008.1
20210619091102 65 196 7.0 16.0 0.00 0.00 0.00 81 1008.2
20210619090602 65 198 10.0 15.0 0.00 0.00 0.00 81 1008.0
20210619090102 65 201 8.0 16.0 0.00 0.00 0.00 81 1008.0
20210619085602 65 199 9.0 16.0 0.00 0.00 0.00 80 1008.0
20210619085103 65 192 7.0 14.0 0.00 0.00 0.00 80 1008.0
20210619084602 65 207 7.0 14.0 0.00 0.00 0.00 80 1008.1
20210619084101 65 195 8.0 14.0 0.00 0.00 0.00 79 1008.1
20210619083602 65 193 8.0 14.0 0.00 0.00 0.00 79 1008.1
20210619083101 65 190 8.0 19.0 0.00 0.00 0.00 79 1008.2
20210619082602 66 191 9.0 19.0 0.00 0.00 0.00 78 1008.3
20210619082101 66 203 10.0 18.0 0.00 0.00 0.00 78 1008.5
20210619081602 66 193 7.0 18.0 0.00 0.00 0.00 78 1008.4
20210619081101 66 202 8.0 15.0 0.00 0.00 0.00 78 1008.6
20210619080602 66 201 6.0 15.0 0.00 0.00 0.00 78 1008.7
20210619080101 66 195 8.0 17.0 0.00 0.00 0.00 78 1008.6
20210619075602 66 196 6.0 17.0 0.00 0.00 0.00 77 1008.6
20210619075101 66 193 8.0 12.0 0.00 0.00 0.00 77 1008.7
20210619074602 66 204 6.0 14.0 0.00 0.00 0.00 77 1008.9
20210619074101 66 201 6.0 14.0 0.00 0.00 0.00 77 1008.9
20210619073602 66 196 6.0 14.0 0.00 0.00 0.00 77 1008.8
20210619073102 66 202 3.0 14.0 0.00 0.00 0.00 76 1009.0
20210619072602 66 207 3.0 14.0 0.00 0.00 0.00 76 1009.0
20210619072102 66 207 8.0 16.0 0.00 0.00 0.00 76 1009.0
20210619071601 66 194 6.0 16.0 0.00 0.00 0.00 76 1009.1
20210619071102 66 199 5.0 14.0 0.00 0.00 0.00 76 1009.2
20210619070602 66 189 7.0 15.0 0.00 0.00 0.00 76 1009.2
20210619070101 66 207 6.0 17.0 0.00 0.00 0.00 76 1009.3
20210619065602 66 208 5.0 17.0 0.00 0.00 0.00 76 1009.4
20210619065101 66 191 4.0 14.0 0.00 0.00 0.00 76 1009.3
20210619064602 66 210 8.0 14.0 0.00 0.00 0.00 76 1009.4
20210619064101 66 201 5.0 14.0 0.00 0.00 0.00 76 1009.5
20210619063602 66 192 8.0 14.0 0.00 0.00 0.00 76 1009.6
20210619063101 66 227 4.0 11.0 0.00 0.00 0.00 77 1009.8
20210619062602 66 203 6.0 11.0 0.00 0.00 0.00 77 1009.8
20210619062101 66 201 4.0 14.0 0.00 0.00 0.00 77 1009.7
20210619061602 66 201 5.0 14.0 0.00 0.00 0.00 77 1009.9
20210619061102 66 199 4.0 13.0 0.00 0.00 0.00 77 1009.9
20210619060601 66 191 6.0 13.0 0.00 0.00 0.00 76 1010.0
20210619060102 66 192 4.0 13.0 0.00 0.00 0.00 76 1010.0
20210619055601 66 186 9.0 13.0 0.00 0.00 0.00 76 1010.0
20210619055102 66 197 8.0 13.0 0.00 0.00 0.00 76 1010.0
20210619054601 66 102 4.0 11.0 0.00 0.00 0.00 76 1010.1
20210619054102 66 105 4.0 11.0 0.00 0.00 0.00 76 1010.1
20210619053601 66 117 5.0 10.0 0.00 0.00 0.00 75 1010.1
20210619053102 66 122 4.0 13.0 0.00 0.00 0.00 75 1010.1
20210619052601 66 131 2.0 14.0 0.00 0.00 0.00 75 1010.1
20210619052102 66 121 5.0 14.0 0.00 0.00 0.00 75 1010.0
20210619051601 66 119 7.0 11.0 0.00 0.00 0.00 75 1010.0
20210619051102 66 115 5.0 10.0 0.00 0.00 0.00 75 1009.9
20210619050602 66 159 3.0 9.0 0.00 0.00 0.00 74 1009.9
20210619050102 67 184 4.0 12.0 0.00 0.00 0.00 74 1009.9
20210619045602 67 184 6.0 12.0 0.00 0.00 0.00 74 1009.8
20210619045101 67 188 5.0 11.0 0.00 0.00 0.00 74 1009.9
20210619044602 67 195 7.0 12.0 0.00 0.00 0.00 73 1009.9
20210619044101 67 204 6.0 13.0 0.00 0.00 0.00 73 1009.9
20210619043602 67 213 5.0 13.0 0.00 0.00 0.00 73 1010.0
20210619043102 67 189 6.0 13.0 0.00 0.00 0.00 73 1010.1
20210619042602 67 192 4.0 12.0 0.00 0.00 0.00 73 1010.2
20210619042101 67 186 8.0 12.0 0.00 0.00 0.00 72 1010.2
20210619041602 67 215 4.0 12.0 0.00 0.00 0.00 72 1010.4
20210619041102 67 179 5.0 9.0 0.00 0.00 0.00 72 1010.4
20210619040602 67 198 4.0 10.0 0.00 0.00 0.00 72 1010.5
20210619040102 67 184 4.0 10.0 0.00 0.00 0.00 72 1010.5
20210619035601 67 188 5.0 12.0 0.00 0.00 0.00 71 1010.6
20210619035102 67 190 7.0 13.0 0.00 0.00 0.00 71 1010.6
20210619034601 67 194 8.0 13.0 0.00 0.00 0.00 70 1010.7
20210619034102 67 179 5.0 13.0 0.00 0.00 0.00 70 1010.7
20210619033602 67 193 8.0 12.0 0.00 0.00 0.00 70 1010.8
20210619033102 67 194 5.0 16.0 0.00 0.00 0.00 69 1010.8
20210619032602 67 203 7.0 16.0 0.00 0.00 0.00 69 1010.7
20210619032102 67 193 6.0 13.0 0.00 0.00 0.00 69 1010.8
20210619031601 67 217 7.0 13.0 0.00 0.00 0.00 68 1010.9
20210619031102 67 208 4.0 12.0 0.00 0.00 0.00 68 1011.1
20210619030602 67 207 4.0 12.0 0.00 0.00 0.00 68 1011.0
20210619030102 68 208 4.0 13.0 0.00 0.00 0.00 67 1011.1
20210619025602 68 203 4.0 13.0 0.00 0.00 0.00 67 1011.1
20210619025102 68 207 7.0 13.0 0.00 0.00 0.00 66 1011.1
20210619024601 68 204 6.0 13.0 0.00 0.00 0.00 66 1011.2
20210619024102 68 213 8.0 14.0 0.00 0.00 0.00 66 1011.2
20210619023601 68 202 4.0 14.0 0.00 0.00 0.00 66 1011.2
20210619023102 68 198 4.0 13.0 0.00 0.00 0.00 66 1011.3
20210619022601 68 217 6.0 12.0 0.00 0.00 0.00 65 1011.2
20210619022102 68 214 5.0 12.0 0.00 0.00 0.00 65 1011.3
20210619021602 68 222 5.0 11.0 0.00 0.00 0.00 65 1011.3
20210619021102 68 222 4.0 10.0 0.00 0.00 0.00 65 1011.4
20210619020602 68 196 3.0 9.0 0.00 0.00 0.00 64 1011.3
20210619020102 68 208 5.0 9.0 0.00 0.00 0.00 65 1011.2
20210619015602 68 220 3.0 11.0 0.00 0.00 0.00 64 1011.2
20210619015101 68 202 7.0 12.0 0.00 0.00 0.00 64 1011.0
20210619014602 68 179 6.0 12.0 0.00 0.00 0.00 65 1010.8
20210619014102 68 179 7.0 12.0 0.00 0.00 0.00 65 1010.7
20210619013602 68 162 6.0 10.0 0.00 0.00 0.00 65 1010.9
20210619013101 68 173 4.0 13.0 0.00 0.00 0.00 65 1010.8
20210619012602 68 192 4.0 13.0 0.00 0.00 0.00 65 1010.9
20210619012101 68 175 6.0 9.0 0.00 0.00 0.00 65 1010.9
20210619011602 68 188 6.0 11.0 0.00 0.00 0.00 66 1010.9
20210619011101 69 186 7.0 11.0 0.00 0.00 0.00 65 1010.9
20210619010602 69 218 3.0 11.0 0.00 0.00 0.00 65 1011.0
20210619010102 69 202 4.0 11.0 0.00 0.00 0.00 64 1011.1
20210619005602 69 181 5.0 10.0 0.00 0.00 0.00 64 1011.1
20210619005101 69 197 5.0 9.0 0.00 0.00 0.00 64 1011.1
20210619004602 69 208 3.0 9.0 0.00 0.00 0.00 63 1011.1
20210619004102 69 213 4.0 12.0 0.00 0.00 0.00 63 1011.0
20210619003601 69 192 6.0 12.0 0.00 0.00 0.00 63 1011.0
20210619003102 70 220 5.0 13.0 0.00 0.00 0.00 62 1011.0
20210619002602 70 207 5.0 13.0 0.00 0.00 0.00 61 1011.0
20210619002102 70 207 3.0 10.0 0.00 0.00 0.00 62 1010.9
20210619001601 70 195 5.0 9.0 0.00 0.00 0.00 61 1010.9
20210619001102 70 215 3.0 13.0 0.00 0.00 0.00 61 1011.0
20210619000601 70 199 7.0 13.0 0.00 0.00 0.00 61 1011.1
20210619000102 71 194 6.0 10.0 0.00 0.00 0.00 61 1011.1
20210618235601 71 190 5.0 10.0 0.00 0.00 0.00 61 1011.1
20210618235102 71 187 6.0 13.0 0.00 0.00 0.00 61 1011.1
20210618234601 71 184 4.0 13.0 0.00 0.00 0.00 61 1011.2
20210618234102 71 198 6.0 14.0 0.00 0.00 0.00 61 1011.2
20210618233601 71 199 5.0 14.0 0.00 0.00 0.00 60 1011.2
20210618233102 72 202 7.0 14.0 0.00 0.00 0.00 60 1011.2
20210618232601 72 191 7.0 16.0 0.00 0.00 0.00 61 1011.2
20210618232102 72 206 10.0 16.0 0.00 0.00 0.00 60 1011.2
20210618231602 72 198 8.0 14.0 0.00 0.00 0.00 60 1011.2
20210618231101 72 196 8.0 14.0 0.00 0.00 0.00 60 1011.2
20210618230602 72 189 7.0 15.0 0.00 0.00 0.00 59 1011.2
20210618230101 73 176 5.0 15.0 0.00 0.00 0.00 59 1011.2
20210618225602 73 202 7.0 14.0 0.00 0.00 0.00 59 1011.3
20210618225101 73 205 5.0 13.0 0.00 0.00 0.00 59 1011.4
20210618224602 73 194 8.0 15.0 0.00 0.00 0.00 59 1011.4
20210618224101 74 192 9.0 15.0 0.00 0.00 0.00 58 1011.4
20210618223602 74 197 9.0 14.0 0.00 0.00 0.00 58 1011.5
20210618223101 74 190 7.0 14.0 0.00 0.00 0.00 57 1011.4
20210618222602 75 185 8.0 15.0 0.00 0.00 0.00 56 1011.5
20210618222102 75 182 9.0 15.0 0.00 0.00 0.00 55 1011.4
20210618221602 76 196 5.0 14.0 0.00 0.00 0.00 53 1011.5
20210618221102 76 205 6.0 19.0 0.00 0.00 0.00 52 1011.6
20210618220602 76 206 9.0 19.0 0.00 0.00 0.00 50 1011.6
20210618220102 77 208 8.0 23.0 0.00 0.00 0.00 50 1011.6
20210618215602 77 188 10.0 23.0 0.00 0.00 0.00 50 1011.6
20210618215102 77 190 9.0 17.0 0.00 0.00 0.00 49 1011.6
20210618214602 77 201 7.0 19.0 0.00 0.00 0.00 50 1011.7
20210618214102 77 188 14.0 19.0 0.00 0.00 0.00 48 1011.7
20210618213601 78 187 8.0 21.0 0.00 0.00 0.00 48 1011.8
20210618213102 78 194 12.0 21.0 0.00 0.00 0.00 47 1011.8
20210618212602 78 199 13.0 19.0 0.00 0.00 0.00 47 1011.9
20210618212102 78 196 12.0 16.0 0.00 0.00 0.00 49 1011.8
20210618211602 78 192 8.0 17.0 0.00 0.00 0.00 50 1011.9
20210618211102 78 193 12.0 19.0 0.00 0.00 0.00 47 1011.9
20210618210602 79 180 12.0 19.0 0.00 0.00 0.00 49 1012.0
20210618210102 78 186 9.0 19.0 0.00 0.00 0.00 48 1012.0
20210618205602 79 183 11.0 19.0 0.00 0.00 0.00 48 1011.9
20210618205101 79 185 10.0 16.0 0.00 0.00 0.00 48 1011.9
20210618204602 79 188 8.0 15.0 0.00 0.00 0.00 49 1012.0
20210618204101 79 215 7.0 19.0 0.00 0.00 0.00 47 1012.0
20210618203602 79 197 9.0 19.0 0.00 0.00 0.00 47 1012.0
20210618203101 79 177 8.0 18.0 0.00 0.00 0.00 50 1012.0
20210618202602 79 193 10.0 21.0 0.00 0.00 0.00 49 1012.1
20210618202101 79 183 11.0 21.0 0.00 0.00 0.00 49 1012.1
20210618201602 79 199 10.0 17.0 0.00 0.00 0.00 48 1012.1
20210618201102 79 210 8.0 23.0 0.00 0.00 0.00 48 1012.0
20210618200602 79 188 6.0 23.0 0.00 0.00 0.00 49 1012.1
20210618200101 79 179 14.0 21.0 0.00 0.00 0.00 49 1012.2
20210618195602 79 188 14.0 20.0 0.00 0.00 0.00 47 1012.1
20210618195101 79 190 11.0 23.0 0.00 0.00 0.00 48 1012.2
20210618194602 79 187 13.0 23.0 0.00 0.00 0.00 48 1012.3
20210618194102 79 185 11.0 23.0 0.00 0.00 0.00 46 1012.2
20210618193602 80 187 10.0 16.0 0.00 0.00 0.00 48 1012.4
20210618193102 80 210 10.0 16.0 0.00 0.00 0.00 46 1012.4
20210618192602 80 180 10.0 17.0 0.00 0.00 0.00 50 1012.5
20210618192102 80 213 8.0 17.0 0.00 0.00 0.00 47 1012.6
20210618191601 80 215 7.0 16.0 0.00 0.00 0.00 47 1012.6
20210618191102 80 221 9.0 19.0 0.00 0.00 0.00 46 1012.7
20210618190601 80 190 11.0 19.0 0.00 0.00 0.00 46 1012.9
20210618190102 79 178 7.0 17.0 0.00 0.00 0.00 48 1013.0
20210618185601 79 180 11.0 17.0 0.00 0.00 0.00 49 1013.0
20210618185102 79 179 11.0 19.0 0.00 0.00 0.00 51 1012.9
20210618184601 79 178 9.0 19.0 0.00 0.00 0.00 49 1013.1
20210618184102 79 192 10.0 17.0 0.00 0.00 0.00 49 1013.2
20210618183602 79 196 11.0 17.0 0.00 0.00 0.00 47 1013.3
20210618183102 79 187 6.0 20.0 0.00 0.00 0.00 51 1013.3
20210618182602 78 185 10.0 20.0 0.00 0.00 0.00 49 1013.3
20210618182101 79 184 13.0 17.0 0.00 0.00 0.00 48 1013.4
20210618181602 79 205 8.0 16.0 0.00 0.00 0.00 46 1013.5
20210618181101 79 193 8.0 17.0 0.00 0.00 0.00 45 1013.5
20210618180602 79 183 10.0 17.0 0.00 0.00 0.00 45 1013.5
20210618180101 79 182 6.0 15.0 0.00 0.00 0.00 45 1013.4
20210618175602 79 215 7.0 15.0 0.00 0.00 0.00 48 1013.4
20210618175102 79 176 4.0 11.0 0.00 0.00 0.00 51 1013.4
20210618174602 79 181 5.0 12.0 0.00 0.00 0.00 45 1013.4
20210618174102 78 210 6.0 15.0 0.00 0.00 0.00 48 1013.5
20210618173601 78 203 9.0 15.0 0.00 0.00 0.00 45 1013.5
20210618173102 78 182 10.0 14.0 0.00 0.00 0.00 46 1013.5
20210618172601 79 196 7.0 16.0 0.00 0.00 0.00 46 1013.6
20210618172102 78 183 9.0 16.0 0.00 0.00 0.00 45 1013.5
20210618171602 78 179 7.0 15.0 0.00 0.00 0.00 48 1013.6
20210618171101 78 194 8.0 15.0 0.00 0.00 0.00 47 1013.7
20210618170602 78 197 8.0 16.0 0.00 0.00 0.00 43 1013.7
20210618170102 78 190 10.0 16.0 0.00 0.00 0.00 47 1013.6
20210618165602 78 153 11.0 17.0 0.00 0.00 0.00 45 1013.7
20210618165101 78 165 12.0 18.0 0.00 0.00 0.00 48 1013.7
20210618164602 79 170 10.0 18.0 0.00 0.00 0.00 47 1013.8
20210618164101 78 187 3.0 12.0 0.00 0.00 0.00 44 1013.8
20210618163602 78 307 3.0 12.0 0.00 0.00 0.00 39 1013.9
20210618163101 78 182 6.0 16.0 0.00 0.00 0.00 52 1014.0
20210618162602 78 188 7.0 16.0 0.00 0.00 0.00 40 1014.0
20210618162101 78 207 4.0 13.0 0.00 0.00 0.00 44 1014.2
20210618161602 78 209 9.0 13.0 0.00 0.00 0.00 42 1014.2
20210618161101 78 191 8.0 13.0 0.00 0.00 0.00 40 1014.2
20210618160602 78 187 8.0 13.0 0.00 0.00 0.00 40 1014.2
20210618160101 78 191 4.0 13.0 0.00 0.00 0.00 41 1014.2
20210618155602 78 234 6.0 15.0 0.00 0.00 0.00 43 1014.2
20210618155102 78 211 10.0 15.0 0.00 0.00 0.00 42 1014.4
20210618154602 78 204 4.0 15.0 0.00 0.00 0.00 45 1014.4
20210618154102 78 194 4.0 14.0 0.00 0.00 0.00 42 1014.5
20210618153601 78 258 2.0 13.0 0.00 0.00 0.00 46 1014.6
20210618153102 77 206 7.0 12.0 0.00 0.00 0.00 41 1014.7
20210618152601 77 228 5.0 13.0 0.00 0.00 0.00 42 1014.7
20210618152102 77 216 7.0 13.0 0.00 0.00 0.00 44 1014.6
20210618151601 77 147 6.0 15.0 0.00 0.00 0.00 45 1014.5
20210618151102 77 157 8.0 15.0 0.00 0.00 0.00 45 1014.5
20210618150601 76 264 2.0 15.0 0.00 0.00 0.00 45 1014.4